Springfield, MO

1:44 AM CDT on July 23, 2017 (GMT -0500)
Springfield-Branson Regional

Weather History for KSGF - January, 2012

Change the Weather History Date:

Sunday, January 1, 2012

  Actual Average Record
Temperature  
Mean Temperature 41 °F 33 °F  
Max Temperature 49 °F 42 °F 70 °F (1965)
Min Temperature 32 °F 23 °F -8 °F (1928)
Degree Days  
Heating Degree Days 24 32  
Month to date heating degree days 24 32  
Since 1 July heating degree days 1701 1842  
Cooling Degree Days 0 0  
Month to date cooling degree days 0 0  
Year to date cooling degree days 0 0  
Moisture  
Dew Point 22 °F    
Average Humidity 51    
Maximum Humidity 76    
Minimum Humidity 26    
Precipitation  
Precipitation 0.00 in 0.09 in 1.84 in (1892)
Month to date precipitation 0.00 0.09  
Year to date precipitation 0.00 0.09  
Snow  
Snow 0.00 in - - ()
Month to date snowfall 0.0  
Since 1 July snowfall 0.4  
Snow Depth 0.00 in    
Sea Level Pressure  
Sea Level Pressure 30.31 in    
Wind  
Wind Speed 15 mph (NW)    
Max Wind Speed 31 mph    
Max Gust Speed 40 mph    
Visibility 10 miles    
Events      
T = Trace of Precipitation, MM = Missing Value Source: NWS Daily Summary

Daily Weather History Graph

Daily Weather History Graph

Search for Another Location

Airport or City:

Trip Planner

Search our weather history database for the weather conditions in past years. The results will help you decide how hot, cold, wet, or windy it might be!

Date:

Astronomy

Jan. 01, 2012 Rise Set
Actual Time 7:27 AM CST 5:06 PM CST
Civil Twilight 6:58 AM CST 5:35 PM CST
Nautical Twilight 6:25 AM CST 6:08 PM CST
Astronomical Twilight 5:54 AM CST 6:39 PM CST
Moon 11:51 AM CST (1/1) 12:28 AM CST (1/1)
Length of Visible Light 10h 37m
Length of Day
9h 39m
First Quarter, 55% of the Moon is Illuminated
Jan 1
First Quarter
Jan 9
Full
Jan 16
Last Quarter
Jan 23
New
Jan 30
First Quarter

Hourly Weather History & Observations

Time (CST) Temp. Windchill Dew Point Humidity Pressure Visibility Wind Dir Wind Speed Gust Speed Precip Events Conditions
12:52 AM 46.0 °F 37.2 °F 32.0 °F 58% 29.92 in 10.0 mi West 26.5 mph 36.8 mph N/A   Clear
1:36 AM 42.8 °F 34.5 °F 32.0 °F 66% 29.97 in 10.0 mi WNW 18.4 mph 32.2 mph N/A   Mostly Cloudy
1:52 AM 42.1 °F 33.3 °F 32.0 °F 67% 30.00 in 10.0 mi WNW 19.6 mph 35.7 mph N/A   Overcast
2:52 AM 42.1 °F 33.6 °F 33.1 °F 70% 30.04 in 10.0 mi NW 18.4 mph 26.5 mph N/A   Overcast
3:52 AM 42.1 °F 32.6 °F 33.1 °F 70% 30.11 in 10.0 mi NW 23.0 mph 35.7 mph N/A   Overcast
4:12 AM 41.0 °F 31.9 °F 32.0 °F 70% 30.12 in 10.0 mi NW 19.6 mph 31.1 mph N/A   Mostly Cloudy
4:52 AM 39.0 °F 32.3 °F 32.0 °F 76% 30.15 in 10.0 mi WNW 10.4 mph 18.4 mph N/A   Clear
5:52 AM 37.0 °F 30.4 °F 30.0 °F 76% 30.20 in 10.0 mi WNW 9.2 mph - N/A   Clear
6:52 AM 37.9 °F 30.0 °F 27.0 °F 65% 30.25 in 10.0 mi NW 12.7 mph 24.2 mph N/A   Clear
7:52 AM 37.0 °F 29.3 °F 25.0 °F 62% 30.31 in 10.0 mi NW 11.5 mph 19.6 mph N/A   Clear
8:52 AM 37.9 °F 28.9 °F 25.0 °F 60% 30.33 in 10.0 mi NW 16.1 mph 21.9 mph N/A   Clear
9:52 AM 41.0 °F 32.5 °F 23.0 °F 49% 30.38 in 10.0 mi NNW 17.3 mph 28.8 mph N/A   Clear
10:52 AM 43.0 °F 35.4 °F 21.9 °F 43% 30.40 in 10.0 mi NW 16.1 mph 24.2 mph N/A   Clear
11:52 AM 45.0 °F 37.4 °F 19.9 °F 37% 30.40 in 10.0 mi NNW 18.4 mph 24.2 mph N/A   Clear
12:52 PM 46.0 °F 38.8 °F 17.1 °F 31% 30.40 in 10.0 mi NW 18.4 mph 28.8 mph N/A   Clear
1:52 PM 46.9 °F - 15.1 °F 28% 30.40 in 10.0 mi NW 21.9 mph 31.1 mph N/A   Clear
2:52 PM 46.9 °F - 14.0 °F 27% 30.42 in 10.0 mi NW 20.7 mph 28.8 mph N/A   Clear
3:52 PM 46.0 °F 40.2 °F 15.1 °F 29% 30.43 in 10.0 mi WNW 12.7 mph 18.4 mph N/A   Clear
4:52 PM 43.0 °F 37.2 °F 15.1 °F 32% 30.45 in 10.0 mi WNW 10.4 mph - N/A   Clear
5:52 PM 39.9 °F 33.9 °F 16.0 °F 38% 30.47 in 10.0 mi NW 9.2 mph - N/A   Clear
6:52 PM 37.9 °F 32.7 °F 15.1 °F 39% 30.48 in 10.0 mi WNW 6.9 mph - N/A   Clear
7:52 PM 36.0 °F 29.6 °F 15.1 °F 43% 30.49 in 10.0 mi NW 8.1 mph - N/A   Clear
8:52 PM 36.0 °F 26.3 °F 16.0 °F 44% 30.50 in 10.0 mi NNW 16.1 mph - N/A   Clear
9:52 PM 34.0 °F 25.5 °F 16.0 °F 48% 30.49 in 10.0 mi NW 11.5 mph - N/A   Clear
10:52 PM 33.1 °F 23.9 °F 14.0 °F 46% 30.50 in 10.0 mi NW 12.7 mph - N/A   Clear
11:52 PM 32.0 °F 21.2 °F 12.9 °F 45% 30.50 in 10.0 mi NNW 16.1 mph - N/A   Clear